Hayfield, Middle Canyon, Santa Catalina Island Weather observations

Data are for 10 minute period ending at time listed.
 Day   Time   Solar   Ave.   Ave.  Ave.  Vector    Max.   Stn.    Total
  of    of     Rad.   Air    Rel.  Wind   Wind     Wind   Baro.  Precip. 
Year   Day            Temp.  Hum.  Speed  Dir.     Gust   Pres.          
2014   (PST)   W/m2    F      %     mph   deg.      mph    mb.     in.   
-------------------------------------------------------------------------
 352   10:40  146.5    59   83.8     3    296.8     7.7    999.0   0.00
 352   10:50  157.4    59   83.6     3    315.6     6.6    999.0   0.00
 352   11:00  207.8    59   81.5     3    336.1     7.2    999.0   0.00
 352   11:10  178.6    60   79.9     2    294.6     6.0    999.0   0.00
 352   11:20  149.4    60   77.3     2    298.1     5.5    999.0   0.00
 352   11:30  121.8    60   76.9     2    300.3     5.5    999.0   0.00
 352   11:40  119.6    60   78.2     3    315.0     6.0    999.0   0.00
 352   11:50   92.6    60   79.3     3    302.8     6.0    999.0   0.00
 352   12:00   98.3    59   80.8     3    306.9     4.9    999.0   0.00
 352   12:10   90.4    59   82.0     3    299.6     6.0    999.0   0.00
 352   12:20   81.0    58   85.4     3    256.3     8.8    999.0   0.00
 352   12:30  136.1    58   89.1     2    245.2     4.4    999.0   0.00
 352   12:40  125.8    57   90.6     2      3.6     4.4    999.0   0.00
 352   12:50  128.0    57   90.7     2    266.9     5.5    999.0   0.00
 352   13:00  126.3    57   91.2     2    213.5     5.5    999.0   0.00
 352   13:10  130.2    57   92.2     1    179.6     6.0    999.0   0.00
 352   13:20  149.1    56   92.4     2    207.4     5.5    999.0   0.00
 352   13:30  121.3    56   93.6     2    154.2     6.0    999.0   0.00
 352   13:40  117.0    55   95.3     2    163.9     5.5    999.0   0.00
 352   13:50  113.0    55   96.3     1    178.4     4.4    999.0   0.00
 352   14:00  100.7    55   96.7     1    156.0     3.8    999.0   0.00
 352   14:10   82.5    55   97.0     1    122.3     4.4    999.0   0.00
 352   14:20   72.0    54   97.7     2    150.1     4.9    999.0   0.00
 352   14:30   69.4    54   98.5     3     74.6     4.9    999.0   0.00
 352   14:40   75.1    54   99.4     3     75.1     6.0    999.0   0.00
 352   14:50   58.5    54   99.9     3     70.6     5.5    999.0   0.00
 352   15:00   38.1    54  100.0     2     68.9     3.8    999.0   0.00
 352   15:10   46.7    54  100.0     1     52.6     3.8    999.0   0.00
 352   15:20   30.7    54  100.0     1     38.1     2.7    999.0   0.01
 352   15:30   30.5    54  100.0     0     52.3     1.6    999.0   0.01
 352   15:40   52.9    54  100.0     1    132.9     3.8    999.0   0.01
 352   15:50   32.0    53  100.0     3    104.5     7.2    999.0   0.00
 352   16:00   33.0    53  100.0     3     89.3     8.3    999.0   0.00
 352   16:10   28.1    53  100.0     1     68.1     4.9    999.0   0.00
 352   16:20   26.3    53  100.0     0     41.5     1.6    999.0   0.00
 352   16:30   11.6    53  100.0     1    146.1     3.8    999.0   0.00
 352   16:40    5.8    53  100.0     2    158.8     4.4    999.0   0.00
 352   16:50    3.2    52  100.0     2    144.8     5.5    999.0   0.00
 352   17:00    1.1    52  100.0     1    158.6     4.4    999.0   0.00
 352   17:10    0.3    52  100.0     0    138.4     1.0    999.0   0.00
 352   17:20    0.0    52  100.0     0    138.5     2.1    999.0   0.00
 352   17:30    0.0    52  100.0     0    123.9     2.7    999.0   0.00
 352   17:40    0.0    51  100.0     1     88.4     2.1    999.0   0.00
 352   17:50    0.0    51  100.0     0     56.2     1.6    999.0   0.00
 352   18:00    0.0    50  100.0     0     56.2     2.1    999.0   0.00
 352   18:10    0.0    50  100.0     1     56.3     2.7    999.0   0.00
 352   18:20    0.0    50  100.0     0     56.1     1.6    999.0   0.00
 352   18:30    0.0    50  100.0     0     56.2     1.6    999.0   0.00
 352   18:40    0.0    50  100.0     0     56.3     2.1    999.0   0.00
 352   18:50    0.0    49  100.0     0     56.5     2.7    999.0   0.00
 352   19:00    0.0    49  100.0     0     55.6     1.6    999.0   0.00
 352   19:10    0.0    48  100.0     0     55.6     1.0    999.0   0.00
 352   19:20    0.0    47  100.0     0     55.7     1.6    999.0   0.00
 352   19:30    0.0    47  100.0     0     56.4     2.7    999.0   0.00
 352   19:40    0.0    46  100.0     1     56.7     2.7    999.0   0.00
 352   19:50    0.0    46  100.0     0     56.8     1.6    999.0   0.00
 352   20:00    0.0    45  100.0     0      0.0     0.0    999.0   0.00
 352   20:10    0.0    45  100.0     0     56.5     1.0    999.0   0.00
 352   20:20    0.0    45  100.0     0     89.5     2.7    999.0   0.00
 352   20:30    0.0    45  100.0     0    100.3     1.6    999.0   0.00
 352   20:40    0.0    45  100.0     0    100.5     2.1    999.0   0.00
 352   20:50    0.0    44  100.0     0    116.1     2.1    999.0   0.00
 352   21:00    0.0    44  100.0     1    121.2     3.2    999.0   0.00
 352   21:10    0.0    45  100.0     2    110.1     2.7    999.0   0.00
 352   21:20    0.0    44  100.0     0    111.9     1.6    999.0   0.00
 352   21:30    0.0    44  100.0     0    132.2     1.0    999.0   0.00
 352   21:40    0.0    43  100.0     0     84.3     1.6    999.0   0.00
 352   21:50    0.0    42  100.0     1     74.0     2.1    999.0   0.00
 352   22:00    0.0    43  100.0     1     97.4     2.7    999.0   0.00
 352   22:10    0.0    43  100.0     1    111.9     3.2    999.0   0.00
 352   22:20    0.0    43  100.0     1    119.8     3.2    999.0   0.00
 352   22:30    0.0    43  100.0     1    115.4     3.2    999.0   0.00
 352   22:40    0.0    43  100.0     1    118.9     3.2    999.0   0.00
 352   22:50    0.0    42  100.0     1    109.1     2.1    999.0   0.00
 352   23:00    0.0    43  100.0     0    106.9     2.1    999.0   0.00
 352   23:10    0.0    43  100.0     0    110.2     2.1    999.0   0.00
 352   23:20    0.0    44  100.0     1    115.1     3.8    999.0   0.00
 352   23:30    0.0    44  100.0     2    129.2     4.4    999.0   0.00
 352   23:40    0.0    44  100.0     1     93.5     3.2    999.0   0.00
 352   23:50    0.0    44  100.0     1    137.9     3.2    999.0   0.00
 353    0:00    0.0    44  100.0     0     87.8     2.7    999.0   0.00
 353    0:10    0.0    45  100.0     0      0.0     0.0    999.0   0.00
 353    0:20    0.0    44  100.0     0     86.7     1.0    999.0   0.00
 353    0:30    0.0    44  100.0     0     83.7     2.1    999.0   0.00
 353    0:40    0.0    44  100.0     0     84.6     2.1    999.0   0.00
 353    0:50    0.0    43  100.0     0      0.0     0.0    999.0   0.00
 353    1:00    0.0    43  100.0     0     85.2     2.7    999.0   0.00
 353    1:10    0.0    44  100.0     1    103.7     3.2    999.0   0.00
 353    1:20    0.0    44  100.0     0    102.4     1.0    999.0   0.00
 353    1:30    0.0    43  100.0     0    102.4     1.0    999.0   0.00
 353    1:40    0.0    43  100.0     0     54.2     2.1    999.0   0.00
 353    1:50    0.0    43  100.0     0     45.2     1.0    999.0   0.00
 353    2:00    0.0    44  100.0     1    129.2     3.2    999.0   0.00
 353    2:10    0.0    44  100.0     0     89.2     2.7    999.0   0.00
 353    2:20    0.0    44  100.0     2     93.7     3.2    999.0   0.00
 353    2:30    0.0    44  100.0     2     81.6     4.4    999.0   0.00
 353    2:40    0.0    44  100.0     1    102.9     2.7    999.0   0.00
 353    2:50    0.0    44  100.0     0     95.3     2.7    999.0   0.00
 353    3:00    0.0    44  100.0     1     94.2     2.1    999.0   0.00
 353    3:10    0.0    44  100.0     2     91.9     3.2    999.0   0.00
 353    3:20    0.0    44  100.0     0    104.7     2.1    999.0   0.00
 353    3:30    0.0    44  100.0     0     99.5     1.6    999.0   0.00
 353    3:40    0.0    44  100.0     0     79.9     1.6    999.0   0.00
 353    3:50    0.0    44  100.0     0     78.9     2.1    999.0   0.00
 353    4:00    0.0    44  100.0     1     98.4     2.7    999.0   0.00
 353    4:10    0.0    45  100.0     0     91.1     2.1    999.0   0.00
 353    4:20    0.0    45  100.0     0    104.9     2.1    999.0   0.00
 353    4:30    0.0    46  100.0     1    110.7     2.1    999.0   0.00
 353    4:40    0.0    46  100.0     0    107.9     2.1    999.0   0.00
 353    4:50    0.0    45  100.0     0    123.3     2.1    999.0   0.00
 353    5:00    0.0    45  100.0     0     77.4     1.6    999.0   0.00
 353    5:10    0.0    44  100.0     0     97.0     2.7    999.0   0.00
 353    5:20    0.0    45  100.0     0     93.3     2.7    999.0   0.00
 353    5:30    0.0    44  100.0     0      0.0     0.0    999.0   0.00
 353    5:40    0.0    44  100.0     1     76.1     2.7    999.0   0.01
 353    5:50    0.0    44  100.0     0    139.6     2.1    999.0   0.00
 353    6:00    0.0    45  100.0     0    125.9     2.1    999.0   0.00
 353    6:10    0.0    45  100.0     1    116.7     2.7    999.0   0.00
 353    6:20    0.0    46  100.0     0    117.7     1.6    999.0   0.00
 353    6:30    0.0    46  100.0     0    117.7     1.6    999.0   0.00
 353    6:40    0.3    46  100.0     0    126.0     2.1    999.0   0.00
 353    6:50    0.8    46  100.0     0    119.6     2.1    999.0   0.00
 353    7:00    1.9    46  100.0     0     78.9     1.6    999.0   0.00
 353    7:10    4.6    47  100.0     0      0.0     0.0    999.0   0.00
 353    7:20   12.2    47  100.0     1     84.2     2.7    999.0   0.00
 353    7:30   22.6    47  100.0     1     86.3     2.7    999.0   0.00
 353    7:40   27.1    48  100.0     1     88.1     3.2    999.0   0.00
 353    7:50   23.2    48  100.0     0    102.4     3.2    999.0   0.00
 353    8:00   24.7    48  100.0     0    102.8     1.6    999.0   0.00
 353    8:10   24.7    48  100.0     0     81.2     2.7    999.0   0.00
 353    8:20   30.8    48  100.0     0     75.5     1.0    999.0   0.00
 353    8:30  153.5    49  100.0     0    113.4     2.7    999.0   0.00
 353    8:40  202.4    50  100.0     2    115.6     4.4    999.0   0.00
 353    8:50   67.7    51  100.0     2    109.1     4.9    999.0   0.00
 353    9:00   39.0    50  100.0     2    135.9     3.8    999.0   0.00
 353    9:10   44.3    50  100.0     0    143.2     2.1    999.0   0.00
 353    9:20   46.8    50  100.0     0    193.2     1.0    999.0   0.00
 353    9:30   65.9    51  100.0     0    191.3     1.6    999.0   0.00
 353    9:40   75.6    51  100.0     0    191.3     1.0    999.0   0.00
 353    9:50   76.3    52  100.0     0    191.2     1.0    999.0   0.00
 353   10:00   74.3    52  100.0     0    191.3     1.0    999.0   0.00
 353   10:10   80.3    52  100.0     0    292.1     2.1    999.0   0.00
 353   10:20   73.8    52  100.0     1     16.9     3.2    999.0   0.00
 353   10:30   92.0    53  100.0     1     74.4     4.4    999.0   0.00

Return to Hayfield, Middle Canyon graphs page.


Western Regional Climate Center,wrcc@dri.edu